Location: Cambroso
(45.2833°N, 12.0850°E)
Time: 18:59:16
(UTC+00:00)

Cosmos 2082 Rocket - Pass Details

Date: 21 January 2021
Orbit: 832 x 854 km, 71.0° (Epoch: 03 March)

Event Time Altitude Azimuth Distance (km) Brightness Sun altitude
Rises 19:19:12 0° 335° (NNW) 3,435 5.7 -34.1°
Reaches altitude 10° 19:21:42 10° 338° (NNW) 2,495 4.9 -34.6°
Enters shadow 19:23:23 20° 342° (NNW) 1,878 4.2 -34.9°
